GEFSCGP_850_meantemp_096.txt.gz
Temperature
17 15 15 15 15 16 17 16 16 16 17 16 16 16 15 15 15 15 14 14 14 15 15 16 16 17 17 17 17 17 17 17 17 17 17 17 17 16 16 16 16 16 16 16
16 16 17 17 16 16 16 16 16 16 17 17 16 15 15 15 14 14 14 13 14 14 15 15 15 16 16 16 16 17 17 16 16 17 17 16 16 16 16 16 15 15 15 15
17 17 18 18 18 17 17 16 16 16 16 16 16 15 15 14 14 13 13 13 13 13 14 14 15 15 15 15 16 16 16 16 16 16 16 15 15 15 15 15 15 15 15 15
16 17 18 18 18 17 16 17 17 17 15 15 16 14 14 14 14 13 12 12 12 12 13 13 13 14 14 15 15 15 15 15 15 15 15 15 15 14 14 14 14 14 14 14
17 18 18 18 18 18 17 17 17 16 15 14 14 14 14 14 14 13 12 12 11 12 12 12 12 13 13 14 14 14 14 15 15 15 15 14 14 14 13 13 13 13 13 13
17 18 18 18 18 18 17 16 15 13 13 14 15 14 14 14 14 13 12 11 11 11 11 11 12 12 12 13 13 13 14 14 14 14 14 14 13 13 13 13 13 12 12 12
17 18 18 18 18 17 16 15 14 14 13 14 14 14 14 13 13 12 11 10 10 10 11 11 11 11 12 12 12 13 13 13 13 13 13 13 13 12 12 12 12 12 12 11
16 16 18 18 18 17 16 15 14 15 14 13 14 14 13 13 12 11 10 10 10 10 10 10 10 10 11 11 11 11 12 12 12 12 12 12 12 12 11 11 11 11 11 10
16 16 17 18 17 17 16 14 14 13 13 13 13 13 13 12 11 11 10 9 9 9 9 9 9 9 10 10 10 10 11 11 11 11 11 11 11 11 10 10 10 10 9 9
16 16 17 17 17 16 16 14 12 13 13 13 14 13 13 12 12 11 10 9 8 9 8 8 8 9 9 9 9 10 10 10 10 10 10 10 10 9 9 9 9 9 8 8
16 15 16 16 16 16 15 14 12 11 12 13 13 13 13 12 12 10 9 8 8 8 8 8 8 8 8 9 9 9 9 9 9 9 9 9 8 8 8 8 8 8 7 7
14 13 14 15 15 15 15 14 12 13 13 12 12 12 12 11 11 10 9 8 8 8 8 8 8 8 8 8 8 8 8 8 8 8 8 7 7 7 7 7 7 6 6 6
13 13 13 14 14 15 15 14 12 11 11 11 12 12 11 11 10 9 8 8 7 7 7 7 7 7 7 7 7 7 7 7 7 7 7 6 6 6 6 6 6 6 5 5
13 12 13 14 14 14 15 14 13 12 11 12 12 12 11 10 10 9 8 7 7 7 7 7 7 6 6 6 6 6 6 6 6 6 6 6 5 5 5 5 5 5 5 5
13 13 14 14 14 15 15 14 14 13 12 12 12 12 11 10 9 8 8 7 7 7 6 6 6 6 6 6 6 6 5 5 5 5 5 5 5 5 5 5 5 5 4 4
12 13 14 14 15 15 14 14 13 13 12 12 12 11 10 9 9 8 8 7 7 6 6 6 6 6 5 5 5 5 5 5 5 5 5 5 5 4 4 4 4 4 4 4
11 13 13 13 14 14 13 13 13 12 12 12 11 11 9 9 8 8 7 7 7 6 6 6 6 5 5 5 5 5 5 5 5 5 4 4 4 4 4 4 4 4 4 4
11 11 10 12 14 14 13 13 13 12 11 11 10 9 9 9 8 8 8 7 7 6 6 6 6 5 5 5 5 5 5 5 5 4 4 4 4 4 4 4 4 4 4 4
11 11 11 11 13 13 13 13 12 12 11 10 9 9 8 8 7 7 7 7 7 7 6 6 6 5 5 5 5 5 4 4 4 4 4 4 4 4 4 4 4 4 4 3
11 11 11 11 13 13 13 13 13 12 11 10 9 8 8 8 8 7 7 7 7 6 6 6 5 5 5 5 5 5 4 4 4 4 4 4 4 4 4 4 4 4 4 3
13 12 11 11 12 12 12 12 13 12 11 9 9 8 8 8 7 7 7 7 6 6 6 5 5 5 5 5 5 5 4 4 4 4 4 4 4 4 4 4 4 4 4 4
12 12 11 10 12 12 12 12 12 10 9 9 9 8 8 7 7 7 7 6 6 6 5 5 5 5 5 5 5 4 4 4 4 4 4 4 4 4 4 4 4 4 4 4
11 11 10 10 10 10 10 11 11 11 10 9 9 8 8 7 6 6 6 6 6 5 5 5 5 5 4 4 4 4 4 4 4 4 4 4 4 4 4 4 4 4 4 3
11 9 9 10 10 9 9 10 11 11 11 10 9 9 8 7 6 6 6 5 5 5 5 5 5 4 4 4 4 4 4 4 4 4 4 4 4 4 4 4 4 4 4 3
11 10 9 9 9 9 9 10 10 10 10 9 9 8 8 7 6 6 5 5 5 5 5 5 5 4 4 4 4 4 4 4 4 4 4 4 4 4 4 4 4 4 3 3
10 10 10 10 10 9 9 10 10 10 9 9 8 7 7 7 6 6 5 5 5 5 5 5 4 4 4 4 4 4 4 4 4 5 5 5 4 4 4 4 4 4 3 3

GEFSCGP_850_meantemp_102.txt.gz
Temperature
23 24 24 24 24 24 24 23 23 23 24 23 23 22 21 21 20 19 19 18 17 16 15 15 15 15 16 16 16 16 16 16 16 16 16 16 16 16 16 16 16 16 16 16
23 24 24 24 24 23 23 23 23 23 23 23 22 21 21 20 19 18 17 16 16 15 15 14 15 15 15 15 15 16 16 16 16 16 16 15 15 15 15 15 15 15 15 15
24 25 24 23 23 23 23 23 23 23 23 23 22 21 21 20 18 17 16 15 15 14 14 14 14 14 14 14 14 15 15 15 15 15 15 15 15 15 14 14 14 14 14 14
24 24 24 23 24 23 23 24 23 23 22 22 22 21 21 20 19 17 16 15 14 13 13 13 13 13 13 13 14 14 14 15 15 15 15 15 14 14 14 14 14 14 14 14
24 24 24 23 24 23 23 23 23 23 22 22 22 22 22 20 19 18 16 14 13 12 12 12 12 12 12 13 13 13 14 14 14 14 14 14 14 13 13 13 13 13 13 13
24 24 24 24 24 23 23 23 23 23 23 21 22 22 21 20 19 18 15 13 12 12 11 11 11 12 12 12 12 13 13 13 13 13 13 13 13 13 12 12 12 12 12 12
24 24 24 23 23 23 23 22 22 21 21 22 22 22 20 19 19 17 15 13 12 11 11 11 11 11 11 11 12 12 12 12 12 13 13 12 12 12 12 12 11 11 11 11
23 23 23 23 23 23 23 22 21 20 21 22 22 21 19 18 17 15 13 12 11 11 10 10 10 10 10 11 11 11 11 11 11 12 12 11 11 11 11 11 11 10 10 10
23 23 23 23 23 23 22 22 23 22 21 21 21 20 17 16 15 14 12 11 10 10 10 9 9 10 10 10 10 10 10 11 11 11 11 10 10 10 10 10 10 9 9 9
23 22 23 23 23 22 23 22 22 21 20 20 20 20 19 16 15 14 13 11 10 9 9 9 9 9 9 9 9 9 10 10 10 10 10 10 9 9 9 9 9 8 8 8
23 21 22 22 22 22 22 22 21 22 21 20 19 19 18 17 16 14 12 10 9 9 8 8 8 8 8 8 9 9 9 9 9 9 9 9 8 8 8 8 8 7 7 7
22 22 21 22 22 22 22 21 21 20 20 20 20 18 17 17 15 13 11 9 8 8 8 8 8 8 8 8 8 8 8 8 8 8 8 7 7 7 7 7 7 6 6 7
21 21 20 21 21 21 21 21 21 21 20 20 19 17 15 15 14 12 10 9 8 8 7 7 7 7 7 7 7 7 7 7 7 7 6 6 6 6 6 6 6 6 6 6
21 21 20 20 20 21 21 21 21 20 20 20 20 18 15 14 13 11 9 8 8 7 7 7 7 6 6 6 6 6 6 6 6 6 6 5 5 5 5 5 5 5 5 5
21 21 21 21 21 21 20 20 20 20 20 20 19 18 16 14 13 11 9 8 8 7 7 6 6 6 6 6 5 5 5 5 5 5 5 5 5 5 5 5 5 4 4 5
20 20 21 20 21 20 20 20 20 19 19 19 18 17 16 13 11 10 9 8 8 7 6 6 6 6 5 5 5 5 5 5 5 5 5 5 5 5 4 4 4 4 4 4
21 20 20 20 21 20 20 20 20 19 19 18 18 16 14 13 12 10 9 8 7 7 6 6 6 5 5 5 5 5 5 5 5 5 5 5 5 4 4 4 4 4 4 4
20 20 20 20 20 19 19 19 19 19 18 18 17 15 14 12 11 10 9 8 7 7 6 6 5 5 5 5 5 5 5 5 5 5 5 5 5 4 4 4 4 4 4 4
20 20 20 20 20 20 19 19 19 18 18 17 16 14 12 10 10 9 8 8 7 6 6 6 5 5 5 5 5 5 5 5 5 5 5 5 5 4 4 4 4 4 4 4
20 20 20 20 19 19 19 19 18 18 17 16 15 13 11 11 12 10 7 7 6 6 6 5 5 5 5 5 5 5 5 5 5 5 5 4 4 4 4 4 4 4 4 4
20 20 20 20 20 20 18 18 18 18 17 14 14 13 12 12 12 9 7 6 6 6 5 5 5 5 5 5 5 5 5 5 5 5 4 4 4 4 4 4 4 4 4 4
21 21 20 20 20 19 17 18 18 16 14 13 13 12 11 9 8 7 6 6 6 5 5 5 5 5 5 5 5 5 5 4 4 4 4 4 4 4 4 4 4 4 4 4
21 21 21 20 19 15 15 15 14 14 13 12 11 10 9 8 7 6 6 6 5 5 5 5 5 5 5 5 5 5 4 4 4 4 4 4 4 4 4 4 4 4 4 5
20 18 19 18 17 15 13 13 13 13 12 11 10 9 9 7 6 6 6 5 5 5 5 5 5 5 5 4 4 4 4 4 5 5 4 4 4 4 4 4 5 5 5 5
21 19 19 18 16 14 13 13 12 11 11 10 9 9 8 7 6 6 5 5 5 5 5 5 5 5 5 5 5 5 5 5 5 5 5 5 5 5 4 4 4 4 4 4
20 20 20 20 16 17 13 12 11 10 10 9 9 8 8 7 6 6 6 5 5 5 5 5 5 5 5 5 5 5 5 5 5 5 5 5 5 5 5 5 4 4 4 4

GEFSCGP_850_meantemp_108.txt.gz
Temperature
25 25 25 27 27 27 27 27 26 27 28 27 26 25 25 25 24 23 21 20 19 18 18 17 17 16 16 16 16 16 16 17 17 17 16 16 16 16 16 16 16 16 16 16
26 26 27 28 28 27 26 26 26 27 28 27 25 25 25 24 23 22 20 19 18 17 17 16 16 15 15 15 15 16 15 16 16 16 16 16 16 15 15 15 15 15 15 15
26 27 28 27 27 26 26 26 26 26 27 26 25 24 24 23 22 20 19 18 17 16 15 15 15 15 15 15 15 15 15 15 15 15 15 15 15 15 15 15 15 15 15 15
27 28 28 27 26 26 25 27 26 26 25 25 25 23 23 22 21 19 18 17 16 15 15 14 14 14 14 14 14 14 14 15 15 15 15 14 14 14 14 14 14 14 14 14
27 27 27 26 27 27 26 27 26 26 25 24 24 23 23 22 20 18 17 16 15 15 14 14 13 13 13 13 13 13 14 14 14 14 14 14 14 13 13 13 13 13 13 13
27 28 28 27 27 27 27 26 25 25 25 23 23 22 22 20 19 18 16 15 15 14 13 13 13 13 12 12 13 13 13 13 13 13 13 13 13 13 13 13 12 12 12 12
25 27 28 27 26 26 26 24 22 22 21 21 21 21 20 19 19 18 16 15 14 14 13 12 12 12 12 12 12 12 12 12 12 12 12 12 12 12 12 12 11 11 11 11
24 24 26 27 26 25 25 24 21 20 20 20 20 19 18 18 18 17 15 14 14 13 12 11 11 11 11 11 11 11 11 11 11 11 11 11 11 11 11 11 11 11 11 11
24 24 26 27 27 26 24 24 24 22 21 21 20 18 17 17 16 16 15 14 13 12 11 11 10 10 10 10 10 10 10 10 10 10 11 11 11 11 10 10 10 10 10 10
25 24 25 26 27 26 25 24 23 22 20 19 20 19 17 16 16 16 15 13 12 11 11 10 10 9 9 9 9 9 9 9 9 10 10 10 10 10 10 9 9 9 9 9
25 24 24 25 25 24 24 24 23 22 21 19 18 18 18 17 16 15 14 13 12 11 10 10 9 9 8 8 9 9 9 9 9 9 9 9 9 9 9 9 8 8 8 8
25 23 23 24 25 25 25 24 23 21 20 20 19 17 18 18 16 15 13 12 11 10 10 9 9 9 8 8 8 8 8 8 8 8 8 8 8 8 8 8 7 7 7 7
25 23 21 21 22 23 23 24 24 23 22 20 19 17 17 17 15 14 12 11 10 9 9 9 8 8 8 7 7 7 7 7 7 7 7 7 7 7 7 7 7 7 7 6
24 22 21 19 20 21 22 23 24 23 22 20 20 18 16 16 15 13 12 10 10 9 9 8 8 7 7 7 7 7 7 7 6 6 6 6 6 6 6 6 6 6 6 6
23 22 22 22 23 23 23 23 24 23 23 21 20 19 17 16 15 13 11 10 9 9 8 8 7 7 6 6 6 6 6 6 6 6 6 6 6 6 6 6 6 6 6 6
23 22 22 22 23 24 23 24 23 23 23 22 20 18 17 16 14 12 11 10 9 9 8 7 7 7 6 6 6 6 6 6 5 5 5 5 5 5 5 6 5 5 5 5
23 21 21 21 23 23 22 23 23 22 22 21 19 17 16 15 14 12 11 10 9 8 8 7 7 6 6 6 6 6 5 5 5 5 5 5 5 5 5 5 5 5 5 5
22 21 21 21 21 20 21 23 23 22 22 21 19 17 16 14 12 11 10 10 8 8 7 7 6 6 6 6 6 5 5 5 5 5 5 5 5 5 5 5 5 5 5 5
23 22 21 20 19 20 21 22 22 22 20 20 18 17 15 13 11 10 10 9 8 7 7 7 6 6 6 6 6 6 6 5 5 5 5 5 5 5 5 5 5 5 5 5
23 22 21 20 19 19 20 22 23 22 19 19 18 16 15 14 13 10 9 8 8 7 7 6 6 6 6 6 6 6 6 6 6 6 5 5 5 5 5 5 5 5 5 5
22 22 21 21 20 19 21 22 22 19 17 18 17 16 15 14 13 10 8 8 7 7 6 6 6 6 6 6 6 6 6 6 6 6 5 5 5 5 5 5 5 5 5 5
22 22 21 21 20 18 21 21 20 18 18 17 16 14 12 11 9 8 8 7 7 6 6 6 6 6 6 6 6 6 5 5 6 5 5 5 5 5 5 5 5 5 5 5
23 22 22 21 19 19 19 18 18 17 17 16 14 13 11 10 9 8 7 7 6 6 6 6 6 6 6 6 6 6 5 6 6 5 5 5 5 5 5 6 6 6 6 6
22 23 22 21 20 19 18 17 17 16 16 14 13 12 11 9 8 7 7 6 6 6 6 6 6 6 6 6 6 6 6 6 6 6 6 5 5 5 5 6 6 6 6 6
22 22 22 20 19 19 18 17 16 15 14 13 12 11 10 9 8 7 7 6 6 6 6 6 6 6 6 6 6 6 6 6 6 6 6 6 6 6 5 6 5 5 5 5
23 22 22 21 20 20 17 16 15 14 13 12 11 10 9 8 8 7 7 7 6 6 6 6 6 6 6 6 6 6 6 6 6 6 6 6 6 6 6 6 5 5 5 5

GEFSCGP_850_meantemp_114.txt.gz
Temperature
22 18 18 18 19 19 21 21 21 22 22 21 20 19 18 18 17 16 15 15 15 15 15 16 16 16 16 16 16 16 16 16 15 16 15 15 15 15 15 15 15 15 15 15
19 18 19 20 21 22 22 21 21 21 22 22 19 18 17 16 16 15 14 14 14 15 15 15 15 15 15 15 16 16 16 16 15 15 15 15 15 14 14 14 14 15 15 15
19 20 22 22 22 22 22 21 21 22 21 20 19 17 16 16 15 14 14 13 13 14 14 14 14 14 14 14 14 14 15 15 15 15 14 14 14 14 14 14 14 14 14 14
19 21 22 22 22 23 21 22 22 22 20 18 19 16 16 15 15 14 13 13 13 13 13 13 13 13 13 13 13 14 14 14 14 14 14 14 14 14 14 13 13 13 13 13
20 22 22 22 23 23 22 22 22 21 19 17 17 16 15 15 14 14 13 12 12 12 12 12 12 12 12 12 12 13 13 13 14 14 14 14 14 13 13 13 13 13 13 13
21 22 22 23 23 23 23 21 19 17 16 16 17 16 15 14 15 14 13 12 12 11 12 12 12 12 12 12 12 12 12 13 13 13 13 13 13 13 12 12 12 12 12 12
21 22 22 23 22 22 20 17 16 16 15 16 16 16 14 14 15 14 12 12 11 11 11 12 11 11 11 11 11 11 11 12 12 12 12 12 12 12 12 12 12 12 12 12
20 20 22 22 22 21 20 18 16 16 16 15 16 15 14 14 14 13 12 11 11 11 11 11 10 10 10 10 10 10 10 11 11 11 11 11 11 11 11 11 11 11 11 11
19 20 22 23 23 21 20 18 17 15 16 15 14 14 14 13 13 12 11 11 10 10 10 10 10 10 9 9 9 10 10 10 10 10 10 10 10 10 10 10 10 10 10 10
20 20 21 22 21 21 20 19 15 15 15 15 15 14 13 13 13 12 11 10 9 9 9 9 9 9 9 9 9 9 9 9 9 9 10 9 9 9 9 9 10 10 10 9
20 19 19 19 20 20 20 19 16 14 14 14 14 14 15 13 13 12 11 10 9 9 9 9 9 8 8 8 8 8 8 9 9 9 9 9 8 8 8 8 8 8 8 8
19 16 17 19 19 20 19 19 16 15 15 14 13 13 14 13 12 11 10 9 9 9 8 8 8 8 8 8 8 8 8 8 8 8 8 8 8 8 8 8 8 8 8 8
18 16 16 17 17 19 19 19 18 15 14 13 14 14 13 12 11 11 10 9 8 8 8 8 8 7 7 7 7 7 7 7 7 7 7 7 7 7 7 7 7 7 7 7
18 16 16 16 17 18 19 19 19 16 14 14 15 14 12 12 11 10 9 9 8 8 8 7 7 7 7 7 6 6 6 6 6 6 6 6 6 6 6 6 6 6 6 6
17 17 18 18 19 19 19 19 19 18 16 15 15 14 13 12 11 10 9 8 8 7 7 7 7 7 6 6 6 6 6 6 6 6 6 6 6 6 6 6 6 6 6 6
15 17 17 18 19 19 19 19 19 18 17 16 14 13 13 11 10 9 9 8 8 7 7 7 7 6 6 6 6 6 6 6 5 5 5 5 5 5 5 5 5 5 6 6
15 15 16 16 17 18 17 18 18 17 16 15 14 13 11 10 10 9 8 8 8 7 7 7 6 6 6 6 6 5 5 5 5 5 5 5 5 5 5 5 5 5 5 5
15 15 14 15 16 16 16 17 18 16 15 15 13 12 11 10 10 9 9 8 7 7 7 7 6 6 6 6 5 5 5 5 5 5 5 5 5 5 5 5 5 5 5 5
15 15 14 14 15 16 17 17 17 15 14 13 12 11 10 9 9 8 8 9 8 8 7 7 6 6 6 5 5 5 5 5 5 5 5 5 5 5 5 5 5 5 5 5
15 14 14 14 15 15 16 17 17 15 13 13 12 10 9 9 9 8 8 8 8 7 7 7 6 6 6 5 5 5 5 5 5 5 5 5 5 5 5 5 5 5 5 5
15 14 14 14 14 15 16 17 17 15 14 13 12 10 10 10 9 9 8 8 7 7 7 6 6 6 5 5 5 5 5 5 5 5 5 5 5 5 5 5 5 5 5 5
14 14 14 13 14 15 16 16 15 14 13 13 11 11 10 10 9 8 8 7 7 7 6 6 6 5 5 5 5 5 5 5 5 5 5 5 5 5 5 5 5 5 5 5
14 13 13 13 13 14 15 15 15 15 13 12 11 11 10 9 8 8 7 7 7 6 6 6 6 5 5 5 5 5 5 5 5 5 5 5 5 5 5 5 5 5 5 5
14 13 12 12 13 14 14 15 15 15 14 13 12 11 10 9 8 7 7 7 6 6 6 6 6 6 5 5 5 5 5 5 5 5 5 5 5 5 5 5 5 5 5 5
14 14 13 13 13 13 14 14 14 13 13 12 11 10 10 9 8 7 7 6 6 6 6 6 6 6 6 5 5 5 5 5 5 5 5 5 5 5 5 5 5 5 5 5
14 14 13 13 13 12 13 13 13 13 12 11 10 9 9 9 8 7 7 6 6 6 6 6 6 6 6 6 6 6 6 6 6 6 6 6 6 6 5 5 5 5 5 5